Погода Охотский Перевоз

Погода Охотский Перевоз : погода сейчас, прогноз погоды и архив. Всё, что Вы хотите узнать о погоде Охотский Перевоз!

Поиск расширенной информации на нашем сайте:

Другие новости

Новости СМИ2

Главная страница сайта

Новости сайта

03.07.2017

Напоминаем, что на нашем специализированном сайте Метеоцентр.Азия вы можете получить высокодетализированные автоматические прогнозы погоды по пунктам России, СНГ и мира в авиационном формате (включающие направление и скорость ветра, видимость, явления погоды, количество и форму облачности, нижнюю и верхнюю границу облачности).

Рекомендуем: Парк отдыха веслево Платная рыбалка.

Погода Охотский Перевоз - сегодня

Время (UTC), дата Ветер
(°,м/с) 
Видим.   Явления Облачность Т
(°С)
Тd
(°С)
f(%) Тe
(°С)
Pmin
(гПа)
dP
(гПа)
Po
(мм)
O2
(г/м3)
Тmin Tmax R s Состояние
почвы
15 20.02.18 тихо ()   10 км    ясно 
-41.3 -43.2 82 -41  1020.1  -0.2  749  358           
18 20.02.18 тихо ()   10 км    ясно 
-43.3 -45.7 77 -43  1020.3  0.1  749  361           
21 20.02.18 тихо ()   10 км    ясно 
-44.8 -47.2 76 -45  1020.5  749  363  -44.8      35  равномерный
сухой снег
100% 
00 21.02.18 120 (ЮВ) 20000 м    1/0 верхняя 
[Ci fib]
-45.4 -47.2 82 -47  1021.4  0.9  750  365  -45.4         
03 21.02.18 140 (ЮВ) 20000 м    6/0 верхняя 
[Ci fib]
-39.6 -42.3 76 -41  1020.9  -0.1  750  356           
06 21.02.18 040 (СВ) 20000 м    ясно 
-34.2 -37.1 75 -35  1021  0.7  751  348           
09 21.02.18 020 (С) 10 км    ясно 
-32 -34.4 79 -33  1020.9  751  345    -31.8       
12 21.02.18 тихо ()   10 км    ясно 
-37.1 -39.5 78 -37  1022.3  751  352           
15 21.02.18 тихо ()   10 км    ясно 
-39.9 -42.2 79 -40  1023.1  0.5  752  357           
18 21.02.18 тихо ()   10 км    ясно 
-41.9 -43.8 82 -42  1023.4  0.2  752  360           
00 22.02.18 тихо ()   20000 м    5/0 верхняя 
[Cs]
-43.9 -45.7 82 -44  1025.2  0.9  753  364  -43.9         
03 22.02.18 140 (ЮВ) 20000 м    3/0 верхняя 
[Ci fib]
-37.4 -40.1 76 -38  1024.9  0.3  753  354           
06 22.02.18 тихо ()   20000 м    6/0 верхняя 
[Ci fib]
-33.3 -37 69 -33  1024.5  753  348           
09 22.02.18 360 (С) 10 км    3/0 верхняя 
[Cs]
-31.8 -34.1 80 -33  1025.1  0.7  754  346    -30.9       
12 22.02.18 тихо ()   10 км    3/0 верхняя 
[Ci fib]
-35 -37.4 79 -35  1026.7  1.3  755  351           
15 22.02.18 тихо ()   10 км    3/0 верхняя 
[Ci fib]
-38.1 -40.3 80 -38  1027.6  0.6  755  356           
18 22.02.18 тихо ()   10 км    5/0 верхняя 
[Ci fib]
-38.1 -40.3 80 -38  1028.4  0.7  756  356           
00 23.02.18 150 (ЮВ) 4000 м  слаб. снег  8/0 верхняя 
[Cs]
-38.3 -40.3 81 -39  1031.1  1.1  758  357           
03 23.02.18 120 (ЮВ) 4000 м  слаб. снег  9/0 верхняя 
[Cs]
-34.1 -36.5 79 -38  1032.1  1.4  759  351           
06 23.02.18 020 (С) 4000 м  слаб. снег  9/0 верхняя 
[Cs]
-29.4 -32.4 75 -30  1032.4  0.7  759  345           
12 23.02.18 010 (С) 4000 м  слаб. снег  9/0 верхняя 
[Cs]
-33.2 -35.6 79 -34  1034.7  0.9  761  351           
15 23.02.18 010 (С) 10 км  {снег}  6/0 верхняя 
[Ci fib]
-36.9 -39.1 80 -38  1035.6  0.6  761  357           
18 23.02.18 тихо ()   10 км  {снег}  ясно 
-39.9 -42.2 79 -40  1036.2  0.3  761  361           
21 23.02.18 тихо ()   10 км    ясно 
-42 -44.4 78 -42  1037.1  0.7  762  365  -42    0.0  35  равномерный
сухой снег
100% 
00 24.02.18 тихо ()   20000 м    ясно 
-42.5 -44.4 82 -43  1037.6  0.4  762  366  -43.4         
Время (UTC), дата Ветер
(°,м/с) 
Видим.   Явления Облачность Т
(°С)
Тd
(°С)
f(%) Тe
(°С)
Pmin
(гПа)
dP
(гПа)
Po
(мм)
O2
(г/м3)
Тmin Tmax R s Состояние
почвы

Для получения пояснительной информации подведите курсор к названию столбца.

ПОГОДА Охотский Перевоз - архив

Всё, что Вы хотите узнать о погоде Охотский Перевоз - удобно и подробно!

Выберите нужную дату (начиная с 1 января 2015* года) и нажмите кнопку "Найти".
Будут отображены архивные сводки погоды по пункту Охотский Перевоз, начиная с указанной даты.


Отображать данные в формате CSV (для использования в таблицах Excel)


Внимание! Наш архив погоды предназначен исключительно для личного некоммерческого использования в познавательных целях. Если Вам необходимы официальные справки о состоянии погоды (для производственных, юридических, коммерческих и т.п. целей), обращайтесь в органы Росгидромета.

*Примечание: данная дата относится к архиву по метеостанциям СССР (Россия, СНГ, Балтия).
Архив по метеостанциям Зарубежной Европы и Азии (кроме Китая) хранится 10 дней, по другим регионам земного шара (Китай, Африка, Америка, Австралия, Океания) - 1 день.

Охотский Перевоз - район местоположения метеостанции


Название, широта, долгота, высота метеостанции:
Охотский Перевоз 61.9°ш. 135.5°д. 140 м над ур. моря [Российская Федерация]

Дополнительная информация

В oтличие oт бoльшинства пoгoдных сайтoв мы публикуем пoдрoбную метеoинфoрмацию в детальнoм прoфессиoнальнoм фoрмате.

Характеристики температуры и влажнoсти вoздуха измеряются на высoте 2 м в тени вдали oт зданий и деревьев.
Скoрoсть ветра измеряется на высoте 10 м (на урoвне рoста челoвека скoрoсть ветра ниже в 1.5-2 раза). Если метеoстанция нахoдится в гoрoде или в лесу, тo скoрoсть ветра занижена на 2-4 м/с пo сравнению с oткрытым местoм. Скoрoсть ветра над акватoриями крупных рек и oзёр, а также на вершинах хoлмoв на 2-5 м/с выше, чем в oбычных услoвиях.
Атмoсфернoе давление в разных тoчках местнoсти мoжет значительнo oтличаться oт давления на метеoстанции, в зависимoсти oт услoвий рельефа (при пoдъёме на 10 м давление пoнижается примернo на 1 мм рт.ст.).